Home   Weather   Papenburg   Past weeks

Flag for Germany Past Weather in Papenburg, Lower Saxony, Germany — Yesterday and Last 2 Weeks

Now
65 °F

Fog.


Feels Like: 65 °F
Forecast: 58 / 66 °F
Wind: 2 mph from Southeast

Location: Emden-Koenigspolder

Current Time: Jun 29, 2017 at 12:37:29 pm

Latest Report: Jun 29, 2017 at 10:00 am


Visibility: 2 mi

Pressure: 29.38 "Hg

Humidity: 91%

Dew Point: 62 °F

Location of PapenburgLocation

Past Weather in Papenburg — Graph

°F

Papenburg Temperature Yesterday

Maximum temperature yesterday: 69 °F (at 4:00 pm)
Minimum temperature yesterday: 58 °F (at 7:00 am)
Average temperature yesterday: 63 °F

High & Low Weather Summary for the Past Weeks

 TemperatureHumidityPressure
High85 °F (Jun 22, 3:00 pm)100% (Jun 18, 6:00 am)30.30 "Hg (Jun 18, 6:00 am)
Low45 °F (Jun 27, 4:00 am)45% (Jun 21, 3:00 pm)29.35 "Hg (Jun 28, 7:00 pm)
Average63 °F79%29.94 "Hg
* Reported Jun 14 10:00 am — Jun 29 10:00 am, Papenburg. Weather by CustomWeather, © 2017

Note: Actual official high and low records may vary slightly from our data, if they occured in-between our weather recording intervals... More about our weather records

Advertising

Papenburg Weather History for the Previous 24 Hours

Scroll right to see more
 ConditionsComfort  
Time TempWeatherWind HumidityBarometerVisibility
10:00 am
Thu, Jun 29
65 °FFog.2 mph91%29.38 "Hg2 mi
9:00 am63 °FLow clouds.2 mph95%29.35 "Hg2 mi
7:00 am60 °FLow clouds.2 mph100%29.35 "Hg0 mi
6:00 am60 °FLow clouds.2 mph100%29.38 "Hg0 mi
4:00 am61 °FLow clouds.1 mph100%29.35 "Hg2 mi
3:00 am61 °FLow clouds.2 mph99%29.35 "Hg2 mi
1:00 am60 °FOvercast.1 mph99%29.35 "Hg3 mi
12:00 am61 °FDrizzle. Overcast.3 mph98%29.35 "Hg4 mi
10:00 pm
Wed, Jun 28
64 °FRain. Low clouds.1 mph98%29.35 "Hg1 mi
9:00 pm65 °FLight rain. Low clouds.3 mph99%29.35 "Hg2 mi
7:00 pm66 °FLight rain. Low clouds.5 mph96%29.35 "Hg2 mi
6:00 pm66 °FOvercast.7 mph92%29.38 "Hg3 mi
4:00 pm69 °FOvercast.8 mph80%29.41 "Hg8 mi
3:00 pm69 °FOvercast.7 mph79%29.41 "Hg8 mi
1:00 pm65 °FOvercast.8 mph85%29.44 "Hg9 mi
12:00 pm64 °FLight rain. Overcast.8 mph87%29.47 "Hg7 mi
Weather by CustomWeather, © 2017

See weather overviewHow to use our weather pages